"2016-03-07 00:00:00",1435611,6.894,343.1,9.53,1.542,16.68,104.8867,11.78,12.92,31.25,0,110.4,13.15,12.58,305.1
"2016-03-07 00:00:30",1435612,7.88,351.9,7.904,1.481,17.92,104.8876,11.78,13.01,31.31,0,110.4,13.15,12.58,313.9
"2016-03-07 00:01:00",1435613,7.11,344.2,6.95,1.347,16.89,104.8882,11.79,12.97,31.18,0,110.4,13.15,12.58,306.2
"2016-03-07 00:01:30",1435614,7.041,342,6.541,1.224,16.89,104.8882,11.79,12.99,31.23,0,110.4,13.15,12.58,304.0
"2016-03-07 00:02:00",1435615,6.829,333.5,7.212,1.048,15.24,104.8882,11.79,12.81,31.04,0,110.4,13.15,12.58,295.5
"2016-03-07 00:02:30",1435616,6.019,341.5,2.887,0.294,14.44,104.887,11.78,12.82,31.03,0,110.4,13.2,12.58,303.5
"2016-03-07 00:03:00",1435617,5.697,340.2,2.001,0.214,14.67,104.8918,11.8,12.81,31.03,0,110.4,13.2,12.59,302.2
"2016-03-07 00:03:30",1435618,6.37,337.3,5.239,0.955,15.48,104.8998,11.82,12.86,31.04,0,110.4,13.15,12.61,299.3
"2016-03-07 00:04:00",1435619,8.46,339.9,7.333,1.338,18.31,104.9056,11.83,12.99,31.2,0,110.4,13.15,12.62,301.9
"2016-03-07 00:04:30",1435620,8.48,332.1,9.1,1.214,17.8,104.9087,11.84,12.99,31.1,0,110.4,13.15,12.63,294.1
"2016-03-07 00:05:00",1435621,7.113,332.9,5.144,0.757,15.34,104.9064,11.83,12.91,30.98,0,110.4,13.15,12.63,294.9
"2016-03-07 00:05:30",1435622,8.18,338.8,7.533,1.118,16.34,104.9089,11.84,12.93,31.02,0,110.4,13.15,12.63,300.8
"2016-03-07 00:06:00",1435623,8.3,331.8,9.5,1.3,16.27,104.9176,11.86,12.96,31.03,0,110.4,13.15,12.66,293.8
"2016-03-07 00:06:30",1435624,7.473,331.3,6.233,0.739,14.74,104.918,11.86,12.84,30.91,0,110.4,13.2,12.66,293.3
"2016-03-07 00:07:00",1435625,6.858,332,9.16,0.778,15,104.9203,11.87,12.84,30.93,0,110.4,13.15,12.66,294.0
"2016-03-07 00:07:30",1435626,9,322.9,7.141,1.696,17.14,104.9203,11.87,13.01,30.99,0,110.4,13.15,12.66,284.9
"2016-03-07 00:08:00",1435627,9.65,326.3,6.547,1.377,18.81,104.9289,11.89,13.04,30.86,0,110.4,13.15,12.68,288.3
"2016-03-07 00:08:30",1435628,8.31,328,7.532,1.164,16.74,104.9303,11.89,13.02,30.99,0,110.4,13.15,12.69,290.0
"2016-03-07 00:09:00",1435629,7.996,328.1,4.464,0.582,14.83,104.9303,11.89,12.86,30.78,0,110.4,13.2,12.69,290.1
"2016-03-07 00:09:30",1435630,10.04,326.3,6.84,2.149,17.18,104.93,11.89,13,30.91,0,110.4,13.15,12.69,288.3
"2016-03-07 00:10:00",1435631,10.58,322.5,8.36,1.53,16.48,104.9297,11.89,12.98,30.77,0,110.4,13.15,12.69,284.5
"2016-03-07 00:10:30",1435632,10.25,312.6,6.271,1.228,15.93,104.9312,11.9,12.87,30.63,0,110.4,13.15,12.69,274.6
"2016-03-07 00:11:00",1435633,9.64,317.2,6.536,1.469,17.01,104.936,11.91,13.08,30.76,0,110.4,13.14,12.70,279.2
"2016-03-07 00:11:30",1435634,10.02,322.8,12.83,1.871,19.06,104.9445,11.93,13.1,30.87,0,110.4,13.15,12.72,284.8
"2016-03-07 00:12:00",1435635,9.89,314.4,10.05,1.704,16.6,104.9589,11.97,13.07,30.78,0,110.4,13.15,12.76,276.4
"2016-03-07 00:12:30",1435636,8.7,310.9,5.322,1.188,15.33,104.9645,11.98,12.96,30.68,0,110.4,13.15,12.78,272.9
"2016-03-07 00:13:00",1435637,10.65,315.6,6.765,1.4,16.65,104.9668,11.99,13.04,30.78,0,110.4,13.15,12.78,277.6
"2016-03-07 00:13:30",1435638,9.49,318.2,6.028,1.169,16.17,104.9674,11.99,13.1,30.94,0,110.4,13.14,12.78,280.2
"2016-03-07 00:14:00",1435639,8.73,314.4,5.371,0.615,16.42,104.9671,11.99,13.03,30.92,0,110.4,13.15,12.78,276.4
"2016-03-07 00:14:30",1435640,9.03,320.9,8.22,1.819,16.87,104.9671,11.99,13.08,30.89,0,110.4,13.15,12.78,282.9
"2016-03-07 00:15:00",1435641,9.96,317.2,7.203,1.383,17.46,104.9677,11.99,13.12,30.81,0,110.4,13.15,12.78,279.2
"2016-03-07 00:15:30",1435642,10.06,320.8,9.28,1.61,17.87,104.9711,12,13.19,30.64,0,110.4,13.15,12.79,282.8
"2016-03-07 00:16:00",1435643,8.82,315.4,4.644,1.005,15.08,104.9707,12,12.97,30.44,0,110.4,13.15,12.79,277.4
"2016-03-07 00:16:30",1435644,8.03,313.8,3.27,0.352,14.74,104.9792,12.02,12.98,30.46,0,110.4,13.2,12.81,275.8
"2016-03-07 00:17:00",1435645,7.901,314.4,7.994,1.427,17.06,104.9902,12.05,13.19,30.77,0,110.4,13.15,12.84,276.4
"2016-03-07 00:17:30",1435646,7.253,314.7,7.711,1.243,16.4,104.9976,12.07,13.17,30.86,0,110.4,13.15,12.86,276.7
"2016-03-07 00:18:00",1435647,7.228,318.4,5.196,1.424,17.01,104.9965,12.06,13.15,30.97,0,110.4,13.15,12.86,280.4
"2016-03-07 00:18:30",1435648,8.02,316.1,7.091,0.919,16.31,104.9965,12.06,13.11,30.86,0,110.4,13.15,12.86,278.1
"2016-03-07 00:19:00",1435649,8.73,316.9,3.463,0.321,15.02,104.9959,12.06,13.02,30.55,0,110.4,13.2,12.86,278.9
"2016-03-07 00:19:30",1435650,9.32,314.5,8.61,1.385,16.99,104.9974,12.07,13.11,30.71,0,110.4,13.15,12.86,276.5
"2016-03-07 00:20:00",1435651,8.65,316.6,6.846,1.432,16.49,105.0005,12.07,13.16,30.65,0,110.4,13.15,12.87,278.6
"2016-03-07 00:20:30",1435652,8.45,314,6.158,0.595,14.76,105.0085,12.09,13.06,30.47,0,110.4,13.2,12.89,276.0
"2016-03-07 00:21:00",1435653,8.19,314.5,3.417,0.504,14.95,105.0171,12.12,13.13,30.51,0,110.4,13.2,12.91,276.5
"2016-03-07 00:21:30",1435654,9.42,326.4,7.684,1.523,17.9,105.0265,12.14,13.27,30.5,0,110.4,13.15,12.93,288.4
"2016-03-07 00:22:00",1435655,8.92,327.8,8.86,1.394,17.62,105.0259,12.14,13.3,30.55,0,110.4,13.15,12.93,289.8
"2016-03-07 00:22:30",1435656,5.765,318.3,7.099,1.188,15.31,105.0238,12.13,13.14,30.43,0,110.4,13.15,12.93,280.3
"2016-03-07 00:23:00",1435657,7.891,314.3,5.015,0.546,14.8,105.0386,12.17,13.13,30.47,0,110.4,13.2,12.97,276.3
"2016-03-07 00:23:30",1435658,7.815,317.9,9.29,1.925,16.37,105.0502,12.2,13.25,30.61,0,110.4,13.15,13.00,279.9
"2016-03-07 00:24:00",1435659,8.05,317.6,7.749,1.307,16.7,105.0524,12.21,13.32,30.67,0,110.4,13.15,13.00,279.6
"2016-03-07 00:24:30",1435660,6.675,318.4,4.64,0.992,15.13,105.0515,12.2,13.21,30.53,0,110.4,13.15,13.00,280.4
"2016-03-07 00:25:00",1435661,7.319,321.6,3.749,0.34,14.76,105.0506,12.2,13.19,30.35,0,110.4,13.2,13.00,283.6
"2016-03-07 00:25:30",1435662,8.24,317.3,5.877,1.385,15.97,105.0563,12.22,13.29,30.36,0,110.4,13.15,13.01,279.3
"2016-03-07 00:26:00",1435663,9.03,331,8.77,1.59,18.29,105.0709,12.25,13.44,30.49,0,110.4,13.15,13.05,293.0
"2016-03-07 00:26:30",1435664,8.86,328.3,6.772,1.753,18.04,105.0801,12.28,13.4,30.43,0,110.4,13.14,13.07,290.3
"2016-03-07 00:27:00",1435665,6.542,325.5,2.869,0.318,14.83,105.083,12.28,13.23,30.26,0,110.4,13.19,13.08,287.5
"2016-03-07 00:27:30",1435666,6.814,325.8,3.752,0.345,14.94,105.083,12.28,13.24,30.24,0,110.4,13.19,13.08,287.8
"2016-03-07 00:28:00",1435667,7.209,321.1,8.45,1.406,16.79,105.0808,12.28,13.43,30.46,0,110.4,13.14,13.07,283.1
"2016-03-07 00:28:30",1435668,7.53,324.1,6.146,1.653,16.8,105.089,12.3,13.39,30.38,0,110.4,13.14,13.10,286.1
"2016-03-07 00:29:00",1435669,6.422,321.4,3.654,0.371,14.76,105.0944,12.31,13.28,30.26,0,110.4,13.19,13.11,283.4
"2016-03-07 00:29:30",1435670,7.864,320.5,3.162,0.451,14.84,105.0997,12.33,13.29,30.2,0,110.4,13.19,13.12,282.5
"2016-03-07 00:30:00",1435671,8.81,323.1,7.948,1.393,16.58,105.1072,12.35,13.47,30.28,0,110.4,13.14,13.14,285.1
"2016-03-07 00:30:30",1435672,9.77,326.9,9.01,1.278,17.62,105.1115,12.36,13.56,30.36,0,110.4,13.14,13.15,288.9
"2016-03-07 00:31:00",1435673,10,325.3,8.03,1.575,17.93,105.1106,12.36,13.5,30.25,0,110.4,13.14,13.15,287.3
"2016-03-07 00:31:30",1435674,8.54,317.8,2.405,0.325,15.22,105.11,12.35,13.33,30.02,0,110.4,13.19,13.15,279.8
"2016-03-07 00:32:00",1435675,8.37,322,5.777,1.119,16.13,105.11,12.35,13.42,30.07,0,110.4,13.14,13.15,284.0
"2016-03-07 00:32:30",1435676,8.63,330.9,9.29,1.32,17.87,105.1122,12.36,13.52,30.29,0,110.4,13.14,13.15,292.9
"2016-03-07 00:33:00",1435677,7.832,318,2.542,1.078,15.06,105.1261,12.4,13.38,30.13,0,110.5,13.19,13.19,280.0
"2016-03-07 00:33:30",1435678,9.66,319.9,6.803,1.045,16.36,105.1292,12.4,13.5,30.17,0,110.5,13.14,13.20,281.9
"2016-03-07 00:34:00",1435679,9.5,320.3,7.102,1.477,17.15,105.1342,12.42,13.59,30.24,0,110.4,13.14,13.21,282.3
"2016-03-07 00:34:30",1435680,9.34,321,6.363,1.372,16.36,105.1404,12.43,13.49,30.13,0,110.5,13.14,13.23,283.0
"2016-03-07 00:35:00",1435681,9.84,321.2,7.728,1.346,17.29,105.1435,12.44,13.55,30.14,0,110.5,13.14,13.24,283.2
"2016-03-07 00:35:30",1435682,8.82,317.1,2.519,0.385,15.33,105.1438,12.44,13.48,30.04,0,110.5,13.19,13.24,279.1
"2016-03-07 00:36:00",1435683,9.77,322.8,6.636,1.332,17.02,105.1438,12.44,13.57,30.13,0,110.5,13.14,13.24,284.8
"2016-03-07 00:36:30",1435684,10.7,322.9,7.235,1.442,17.82,105.1438,12.44,13.55,30.05,0,110.5,13.14,13.24,284.9
"2016-03-07 00:37:00",1435685,8.91,320.1,4.856,0.895,15.74,105.1438,12.44,13.49,29.96,0,110.5,13.14,13.24,282.1
"2016-03-07 00:37:30",1435686,9.92,324.5,6.427,1.405,17.67,105.1438,12.44,13.56,30.03,0,110.5,13.14,13.24,286.5
"2016-03-07 00:38:00",1435687,9.55,319.1,5.104,0.909,15.53,105.1438,12.44,13.47,29.92,0,110.5,13.14,13.24,281.1
"2016-03-07 00:38:30",1435688,9.89,323.1,7.274,1.26,16.88,105.1438,12.44,13.62,30.03,0,110.5,13.14,13.24,285.1
"2016-03-07 00:39:00",1435689,10.13,323.1,6.723,0.922,16.36,105.1438,12.44,13.52,29.96,0,110.5,13.14,13.24,285.1
"2016-03-07 00:39:30",1435690,9.25,317,5.4,1.282,16.31,105.1438,12.44,13.47,29.99,0,110.5,13.14,13.24,279.0
"2016-03-07 00:40:00",1435691,9.4,324.2,7.114,1.435,18.57,105.1438,12.44,13.65,30.18,0,110.5,13.14,13.24,286.2
"2016-03-07 00:40:30",1435692,8.72,317.9,6.726,1.272,16.36,105.1438,12.44,13.56,30.09,0,110.5,13.14,13.24,279.9
"2016-03-07 00:41:00",1435693,9.54,318.6,7.947,1.505,17.22,105.1438,12.44,13.54,30.16,0,110.5,13.14,13.24,280.6
"2016-03-07 00:41:30",1435694,8.16,313.9,1.301,0.21,15.22,105.1438,12.44,13.49,30.07,0,110.5,13.19,13.24,275.9
"2016-03-07 00:42:00",1435695,9.04,320.5,6.77,1.32,17.2,105.1438,12.44,13.59,30.17,0,110.5,13.14,13.24,282.5
"2016-03-07 00:42:30",1435696,9.75,321.3,7.46,1.444,17.64,105.1438,12.44,13.55,30.08,0,110.5,13.14,13.24,283.3
"2016-03-07 00:43:00",1435697,8.76,315.7,1.645,0.249,15.67,105.1438,12.44,13.49,30.02,0,110.5,13.18,13.24,277.7
"2016-03-07 00:43:30",1435698,9.84,320.3,7.313,1.517,18.55,105.1438,12.44,13.59,30.17,0,110.5,13.14,13.24,282.3
"2016-03-07 00:44:00",1435699,9.26,317.9,7.241,1.563,17.54,105.1438,12.44,13.55,30.17,0,110.5,13.14,13.24,279.9
"2016-03-07 00:44:30",1435700,9.56,323.9,7.517,1.447,18.2,105.1438,12.44,13.63,30.19,0,110.5,13.13,13.24,285.9
"2016-03-07 00:45:00",1435701,8.43,317.8,2.484,0.586,15.12,105.1433,12.44,13.45,30.06,0,110.5,13.13,13.23,279.8
"2016-03-07 00:45:30",1435702,9.31,313.6,6.351,1.256,16.36,105.1413,12.43,13.51,30.19,0,110.5,13.13,13.23,275.6
"2016-03-07 00:46:00",1435703,9.6,318.4,7.296,1.351,17.31,105.1379,12.43,13.59,30.32,0,110.5,13.13,13.22,280.4
"2016-03-07 00:46:30",1435704,9.88,317.9,7.314,1.097,16.55,105.1362,12.42,13.45,30.21,0,110.5,13.13,13.22,279.9
"2016-03-07 00:47:00",1435705,11.19,319.7,8.71,1.665,18.02,105.1314,12.41,13.55,30.39,0,110.5,13.13,13.20,281.7
"2016-03-07 00:47:30",1435706,10.11,319,7.132,1.339,17.6,105.1272,12.4,13.61,30.5,0,110.5,13.13,13.19,281.0
"2016-03-07 00:48:00",1435707,9.04,318.3,6.906,1.329,17.39,105.1263,12.4,13.62,30.53,0,110.5,13.14,13.19,280.3
"2016-03-07 00:48:30",1435708,9.15,311.5,8.53,1.018,15.81,105.1213,12.38,13.4,30.34,0,110.5,13.14,13.18,273.5
"2016-03-07 00:49:00",1435709,10.25,313,4.359,0.568,15.78,105.1142,12.36,13.48,30.37,0,110.5,13.14,13.16,275.0
"2016-03-07 00:49:30",1435710,10.25,317.7,6.465,1.44,17.24,105.1103,12.35,13.5,30.4,0,110.5,13.14,13.15,279.7
"2016-03-07 00:50:00",1435711,10.48,318.1,7.375,1.186,16.72,105.11,12.35,13.49,30.27,0,110.5,13.14,13.15,280.1
"2016-03-07 00:50:30",1435712,10.59,319,8.46,1.229,17.5,105.11,12.35,13.58,30.37,0,110.4,13.14,13.15,281.0
"2016-03-07 00:51:00",1435713,11.04,316.9,7.552,1.514,18.55,105.11,12.35,13.55,30.46,0,110.5,13.14,13.15,278.9
"2016-03-07 00:51:30",1435714,11.11,318.8,7.813,1.447,18.02,105.11,12.35,13.55,30.47,0,110.5,13.14,13.15,280.8
"2016-03-07 00:52:00",1435715,8.13,312.5,1.155,0.444,15.06,105.11,12.35,13.36,30.37,0,110.5,13.14,13.15,274.5
"2016-03-07 00:52:30",1435716,9.26,313.5,7.166,1.328,16.17,105.11,12.35,13.47,30.46,0,110.5,13.14,13.15,275.5
"2016-03-07 00:53:00",1435717,9.78,312.6,6.691,1.636,17.07,105.11,12.35,13.46,30.37,0,110.5,13.15,13.15,274.6
"2016-03-07 00:53:30",1435718,8.74,317,6.649,1.694,16.74,105.1086,12.35,13.44,30.48,0,110.5,13.15,13.15,279.0
"2016-03-07 00:54:00",1435719,8.75,321.9,9.35,1.566,17.91,105.1043,12.34,13.55,30.62,0,110.5,13.15,13.13,283.9
"2016-03-07 00:54:30",1435720,9.42,327.2,6.883,1.437,18.1,105.0998,12.33,13.46,30.46,0,110.4,13.15,13.12,289.2
"2016-03-07 00:55:00",1435721,8.16,321.8,6.451,1.191,16.7,105.0945,12.31,13.48,30.47,0,110.5,13.15,13.11,283.8
"2016-03-07 00:55:30",1435722,7.967,319.3,5.883,1.326,16.46,105.088,12.3,13.38,30.43,0,110.4,13.15,13.09,281.3
"2016-03-07 00:56:00",1435723,6.853,315,1.833,0.373,14.99,105.0891,12.3,13.32,30.26,0,110.4,13.19,13.10,277.0
"2016-03-07 00:56:30",1435724,7.205,319,7.366,1.31,17.15,105.0857,12.29,13.48,30.51,0,110.4,13.15,13.09,281.0
"2016-03-07 00:57:00",1435725,7.526,318.8,6.75,1.383,17.44,105.0795,12.28,13.44,30.6,0,110.4,13.15,13.07,280.8
"2016-03-07 00:57:30",1435726,6.346,316.8,6.647,1.155,16.65,105.0761,12.27,13.37,30.56,0,110.4,13.15,13.06,278.8
"2016-03-07 00:58:00",1435727,8.38,317,7.575,1.66,17.93,105.0761,12.27,13.5,30.61,0,110.4,13.15,13.06,279.0
"2016-03-07 00:58:30",1435728,9,316.5,8.72,1.525,17.62,105.0764,12.27,13.43,30.43,0,110.4,13.15,13.06,278.5
"2016-03-07 00:59:00",1435729,9.56,316.9,7.559,1.565,17.44,105.0761,12.27,13.41,30.47,0,110.4,13.15,13.06,278.9
"2016-03-07 00:59:30",1435730,6.607,308.7,2.144,0.482,14.87,105.0761,12.27,13.3,30.39,0,110.4,13.2,13.06,270.7
"2016-03-07 01:00:00",1435731,6.467,309,1.091,0.215,14.96,105.0767,12.27,13.3,30.49,0,110.4,13.19,13.06,271.0
"2016-03-07 01:00:30",1435732,7.664,320.4,7.622,1.628,17.81,105.072,12.26,13.49,30.62,0,110.4,13.14,13.05,282.4
"2016-03-07 01:01:00",1435733,8.03,313.9,6.722,1.531,16.61,105.0704,12.25,13.38,30.45,0,110.4,13.14,13.05,275.9
"2016-03-07 01:01:30",1435734,11.05,316.5,7.482,1.676,18.31,105.0619,12.23,13.43,30.24,0,110.4,13.14,13.03,278.5
"2016-03-07 01:02:00",1435735,10.39,315.7,8.31,1.538,18.07,105.0552,12.21,13.47,30.03,0,110.4,13.14,13.01,277.7
"2016-03-07 01:02:30",1435736,9.53,309,7.58,1.495,17.35,105.0536,12.21,13.36,30.11,0,110.4,13.14,13.00,271.0
"2016-03-07 01:03:00",1435737,8.7,313.7,11.71,1.338,16.13,105.0485,12.2,13.34,30.28,0,110.4,13.14,12.99,275.7
"2016-03-07 01:03:30",1435738,7.779,302.7,6.354,0.685,14.77,105.0485,12.2,13.24,30.37,0,110.4,13.19,12.99,264.7
"2016-03-07 01:04:00",1435739,9.84,312.1,8.83,2.199,16.28,105.0494,12.2,13.37,30.45,0,110.4,13.14,12.99,274.1
"2016-03-07 01:04:30",1435740,10.11,310,9.62,1.429,17.52,105.0497,12.2,13.38,30.33,0,110.4,13.14,12.99,272.0
"2016-03-07 01:05:00",1435741,7.283,322.3,11.33,1.635,17.34,105.0515,12.2,13.33,30.38,0,110.4,13.14,13.00,284.3
"2016-03-07 01:05:30",1435742,9.19,316.6,7.969,1.958,16.68,105.0518,12.21,13.31,30.41,0,110.5,13.15,13.00,278.6
"2016-03-07 01:06:00",1435743,10.4,322.4,7.547,1.767,17.49,105.0479,12.19,13.42,30.42,0,110.4,13.15,12.99,284.4
"2016-03-07 01:06:30",1435744,6.974,312,7.647,1.619,15.3,105.0397,12.17,13.27,30.68,0,110.4,13.15,12.97,274.0
"2016-03-07 01:07:00",1435745,9.92,305.4,4.182,0.949,14.85,105.0222,12.13,13.16,30.11,0,110.4,13.2,12.92,267.4
"2016-03-07 01:07:30",1435746,8.06,318.4,7.26,1.159,16.3,105.023,12.13,13.25,30.44,0,110.4,13.15,12.93,280.4
"2016-03-07 01:08:00",1435747,10.27,307.9,10.8,2.28,17.45,105.0227,12.13,13.36,30.65,0,110.4,13.15,12.92,269.9
"2016-03-07 01:08:30",1435748,10.24,315.3,6.94,1.754,17.28,105.0236,12.13,13.24,30.36,0,110.4,13.15,12.93,277.3
"2016-03-07 01:09:00",1435749,11.22,314.1,7.504,1.374,17.92,105.0231,12.13,13.35,30.11,0,110.4,13.15,12.93,276.1
"2016-03-07 01:09:30",1435750,12.06,310.3,8.71,1.221,17.13,105.0169,12.12,13.24,29.99,0,110.4,13.15,12.91,272.3
"2016-03-07 01:10:00",1435751,11.93,307.8,7.16,1.335,16.21,105.0116,12.1,13.22,29.89,0,110.4,13.15,12.90,269.8
"2016-03-07 01:10:30",1435752,10.75,304.5,2.551,0.417,14.87,105.0102,12.1,13.1,29.83,0,110.4,13.2,12.89,266.5
"2016-03-07 01:11:00",1435753,11.81,307.1,6.456,1.222,16.51,105.0094,12.1,13.25,30.03,0,110.4,13.15,12.89,269.1
"2016-03-07 01:11:30",1435754,13.01,314.9,6.421,1.483,18.93,105.0052,12.09,13.31,30.19,0,110.4,13.15,12.88,276.9
"2016-03-07 01:12:00",1435755,12.39,305.9,5.916,1.309,16.74,104.9976,12.07,13.19,30.16,0,110.4,13.15,12.86,267.9
"2016-03-07 01:12:30",1435756,13.22,312.1,7.004,1.53,17.99,104.9959,12.06,13.24,30.14,0,110.4,13.15,12.86,274.1
"2016-03-07 01:13:00",1435757,11.94,311.6,6.973,1.466,17.12,104.9971,12.07,13.25,30.26,0,110.4,13.15,12.86,273.6
"2016-03-07 01:13:30",1435758,10.04,310.4,2.338,0.299,14.66,105.0001,12.07,13.07,30.09,0,110.4,13.2,12.87,272.4
"2016-03-07 01:14:00",1435759,11.23,307.6,4.221,1.298,15.53,104.9995,12.07,13.16,30.16,0,110.4,13.15,12.87,269.6
"2016-03-07 01:14:30",1435760,12.99,314.1,7.522,1.345,17.72,105.0001,12.07,13.2,29.89,0,110.4,13.15,12.87,276.1
"2016-03-07 01:15:00",1435761,12.97,315.4,7.504,1.369,17.91,105.0004,12.07,13.23,29.98,0,110.4,13.15,12.87,277.4
"2016-03-07 01:15:30",1435762,14.66,314,6.975,1.376,19.05,104.9995,12.07,13.31,29.5,0,110.4,13.15,12.87,276.0
"2016-03-07 01:16:00",1435763,14.61,316.8,6.832,1.072,17.99,105.0004,12.07,13.22,29.26,0,110.4,13.15,12.87,278.8
"2016-03-07 01:16:30",1435764,12.42,309.2,4.504,1.033,15.12,105.0028,12.08,13.07,29.19,0,110.4,13.15,12.87,271.2
"2016-03-07 01:17:00",1435765,11.56,308.3,5.459,1.488,15.83,105.0031,12.08,13.14,29.55,0,110.4,13.15,12.87,270.3
"2016-03-07 01:17:30",1435766,12.7,314,8.11,1.682,16.8,105.004,12.08,13.14,29.75,0,110.4,13.15,12.88,276.0
"2016-03-07 01:18:00",1435767,15.75,315.7,7.512,1.94,18.08,105.0014,12.08,13.21,29.56,0,110.4,13.15,12.87,277.7
"2016-03-07 01:18:30",1435768,16.01,314.9,7.53,1.596,18.37,105.0015,12.08,13.26,29.39,0,110.4,13.15,12.87,276.9
"2016-03-07 01:19:00",1435769,16.49,314.4,6.71,1.522,18.09,105.0006,12.07,13.26,29.4,0,110.4,13.15,12.87,276.4
"2016-03-07 01:19:30",1435770,16.25,313.9,8.83,1.349,16.94,104.9975,12.07,13.23,29.37,0,110.4,13.15,12.86,275.9
"2016-03-07 01:20:00",1435771,16.11,312.2,6.611,1.34,16.19,105.001,12.08,13.07,29.15,0,110.4,13.14,12.87,274.2
"2016-03-07 01:20:30",1435772,16.09,316,7.707,1.476,17.71,105.0027,12.08,13.2,29.39,0,110.4,13.15,12.87,278.0
"2016-03-07 01:21:00",1435773,16.42,311.9,7.024,1.359,16.56,105.0047,12.08,13.12,29.4,0,110.4,13.14,12.88,273.9
"2016-03-07 01:21:30",1435774,16.02,316.1,7.517,1.464,18.24,105.0029,12.08,13.26,29.65,0,110.4,13.15,12.87,278.1
"2016-03-07 01:22:00",1435775,16.03,314.9,7.197,1.428,18.51,105.0067,12.09,13.29,29.81,0,110.4,13.15,12.88,276.9
"2016-03-07 01:22:30",1435776,14.57,311.4,7.006,1.581,16.45,105.0031,12.08,13.16,29.69,0,110.4,13.15,12.87,273.4
"2016-03-07 01:23:00",1435777,13.56,308,3.262,0.561,15.12,105.0014,12.08,13.09,29.61,0,110.4,13.15,12.87,270.0
"2016-03-07 01:23:30",1435778,14.36,316.7,7.853,1.596,17.5,105.0011,12.08,13.16,29.68,0,110.4,13.15,12.87,278.7
"2016-03-07 01:24:00",1435779,13.64,312.3,7.203,1.537,16.68,104.9963,12.06,13.1,29.83,0,110.4,13.15,12.86,274.3
"2016-03-07 01:24:30",1435780,14.17,314.9,8.43,1.535,17.4,104.9865,12.04,13.19,30.04,0,110.4,13.15,12.83,276.9
"2016-03-07 01:25:00",1435781,14.01,316,6.96,1.485,18.23,104.9822,12.03,13.23,30.16,0,110.4,13.15,12.82,278.0
"2016-03-07 01:25:30",1435782,13.72,313.6,7.815,1.313,17.9,104.98,12.02,13.21,30.03,0,110.4,13.15,12.82,275.6
"2016-03-07 01:26:00",1435783,13.58,310.8,5.851,1.442,16.04,104.9763,12.01,13.02,29.81,0,110.4,13.15,12.81,272.8
"2016-03-07 01:26:30",1435784,13.22,308.9,6.945,1.288,16.06,104.9763,12.01,13.11,30.05,0,110.4,13.15,12.81,270.9
"2016-03-07 01:27:00",1435785,13.15,309,7.193,1.255,16.61,104.9763,12.01,13.16,30.21,0,110.4,13.15,12.81,271.0
"2016-03-07 01:27:30",1435786,14.29,309,7.765,1.378,17.98,104.9763,12.01,13.14,30,0,110.4,13.15,12.81,271.0
"2016-03-07 01:28:00",1435787,13.4,309.6,7.89,1.47,17.32,104.9752,12.01,13.18,30.11,0,110.4,13.15,12.80,271.6
"2016-03-07 01:28:30",1435788,13.91,309.5,6.738,1.321,17.22,104.9698,12,13.17,30.22,0,110.4,13.15,12.79,271.5
"2016-03-07 01:29:00",1435789,12.94,306.7,7.014,1.316,15.61,104.9639,11.98,12.98,29.94,0,110.4,13.15,12.77,268.7
"2016-03-07 01:29:30",1435790,13.66,306.7,7.287,1.522,16.2,104.956,11.96,13.12,30.2,0,110.4,13.15,12.75,268.7
"2016-03-07 01:30:00",1435791,15,308.1,8.41,1.78,17.59,104.9458,11.93,13.09,30.03,0,110.4,13.15,12.73,270.1
"2016-03-07 01:30:30",1435792,15.99,311.3,8.08,1.291,17.89,104.9425,11.93,13.07,30.01,0,110.4,13.15,12.72,273.3
"2016-03-07 01:31:00",1435793,15.36,311.1,7.743,1.672,17.29,104.9425,11.93,13.1,30.03,0,110.4,13.16,12.72,273.1
"2016-03-07 01:31:30",1435794,15.08,314.5,8.92,2.17,17.18,104.9425,11.93,13.11,30.32,0,110.4,13.16,12.72,276.5
"2016-03-07 01:32:00",1435795,15.32,307.7,5.944,0.747,16.03,104.9425,11.93,13,30.11,0,110.4,13.15,12.72,269.7
"2016-03-07 01:32:30",1435796,15.78,309.5,6.84,1.188,16.38,104.9422,11.92,13.09,30.11,0,110.4,13.15,12.72,271.5
"2016-03-07 01:33:00",1435797,16.83,314,7.259,1.361,17.9,104.9346,11.9,13.05,29.95,0,110.4,13.15,12.70,276.0
"2016-03-07 01:33:30",1435798,16.47,309.9,6.466,1.436,17.12,104.934,11.9,13.06,30.03,0,110.4,13.16,12.70,271.9
"2016-03-07 01:34:00",1435799,16.94,315.9,7.527,1.43,18.21,104.9323,11.9,13.15,30.13,0,110.4,13.15,12.69,277.9
"2016-03-07 01:34:30",1435800,17.11,313.5,7.364,1.443,17.9,104.9298,11.89,13.05,29.88,0,110.4,13.15,12.69,275.5
"2016-03-07 01:35:00",1435801,15.83,310,6.673,1.144,16.36,104.9323,11.9,13.05,30.01,0,110.4,13.15,12.69,272.0
"2016-03-07 01:35:30",1435802,17.16,313.2,7.664,1.498,17.55,104.9331,11.9,13.05,30.12,0,110.4,13.15,12.69,275.2
"2016-03-07 01:36:00",1435803,15.94,309.4,6.306,1.387,16.08,104.9346,11.9,12.97,30.21,0,110.4,13.15,12.70,271.4
"2016-03-07 01:36:30",1435804,16.23,305.9,7.289,0.936,16.35,104.9348,11.91,13.05,30.41,0,110.4,13.15,12.70,267.9
"2016-03-07 01:37:00",1435805,17.21,314.8,6.999,1.58,18.14,104.934,11.9,13.06,30.32,0,110.4,13.15,12.70,276.8
"2016-03-07 01:37:30",1435806,16.36,313.8,8.08,1.47,17.87,104.9337,11.9,13.08,30.29,0,110.4,13.15,12.70,275.8
"2016-03-07 01:38:00",1435807,15.68,311.8,8.28,0.983,16.47,104.9346,11.9,13.06,30.3,0,110.4,13.15,12.70,273.8
"2016-03-07 01:38:30",1435808,15.94,312.4,7.281,1.433,16.72,104.9331,11.9,12.97,30.33,0,110.4,13.15,12.69,274.4
"2016-03-07 01:39:00",1435809,15.96,312.8,8.06,1.609,16.5,104.9306,11.89,13.07,30.41,0,110.4,13.15,12.69,274.8
"2016-03-07 01:39:30",1435810,16.31,310.6,7.985,1.057,16.69,104.9275,11.89,12.99,30.29,0,110.4,13.15,12.68,272.6
"2016-03-07 01:40:00",1435811,17.52,312.5,6.313,1.483,17.75,104.9264,11.88,13,30.22,0,110.4,13.15,12.68,274.5
"2016-03-07 01:40:30",1435812,18.25,314.1,7.608,1.489,18.03,104.9238,11.88,13.09,30.27,0,110.4,13.16,12.67,276.1
"2016-03-07 01:41:00",1435813,16.54,313.2,8.41,1.673,17.62,104.9233,11.88,13.02,30.43,0,110.4,13.15,12.67,275.2
"2016-03-07 01:41:30",1435814,15.69,311,8.96,1.583,16.46,104.9235,11.88,13.02,30.67,0,110.4,13.15,12.67,273.0
"2016-03-07 01:42:00",1435815,18.67,310.5,7.051,1.533,16.91,104.912,11.85,12.96,30.29,0,110.4,13.16,12.64,272.5
"2016-03-07 01:42:30",1435816,16.36,304.4,1.629,0.62,14.74,104.9086,11.84,12.88,30.18,0,110.4,13.2,12.63,266.4
"2016-03-07 01:43:00",1435817,17.34,311.6,8.42,1.403,17.47,104.9086,11.84,13,30.58,0,110.4,13.16,12.63,273.6
"2016-03-07 01:43:30",1435818,18.05,312.4,7.085,1.524,18.07,104.9086,11.84,13.05,30.65,0,110.4,13.16,12.63,274.4
"2016-03-07 01:44:00",1435819,18.89,313,7.507,1.479,17.84,104.9086,11.84,13.04,30.4,0,110.4,13.16,12.63,275.0
"2016-03-07 01:44:30",1435820,18.33,311.4,6.913,1.395,18.19,104.9066,11.83,13.06,30.49,0,110.4,13.16,12.63,273.4
"2016-03-07 01:45:00",1435821,17.63,313,6.71,1.707,17.81,104.9007,11.82,13.06,30.82,0,110.4,13.16,12.61,275.0
"2016-03-07 01:45:30",1435822,17.98,311.3,8.47,1.655,16.75,104.8925,11.8,12.97,30.7,0,110.3,13.15,12.59,273.3
"2016-03-07 01:46:00",1435823,16.54,306.5,5.739,1.051,14.88,104.8832,11.77,12.84,30.8,0,110.4,13.15,12.57,268.5
"2016-03-07 01:46:30",1435824,16.52,305.3,7.446,1.883,16.38,104.875,11.75,12.86,30.95,0,110.3,13.15,12.55,267.3
"2016-03-07 01:47:00",1435825,17.5,309.7,7.496,1.327,17.38,104.8747,11.75,12.94,30.98,0,110.4,13.16,12.54,271.7
"2016-03-07 01:47:30",1435826,17.2,311.4,7.01,1.581,17.69,104.8747,11.75,12.96,31.02,0,110.4,13.16,12.54,273.4